This is the latest recevied weather packets stored in our database for station/object NEWPRT. If no packets are shown the sender has not sent any weather packets the latest 10 day(s).
| Time | Temp. | Humidity | Pressure | Rain* | Wind** | Luminosity | Snow |
|---|---|---|---|---|---|---|---|
| 1777437655 | - | 61% | 1025.3 hPa | 0 mm | - | - | - |
| 1777437332 | - | 61% | 1025.1 hPa | 0 mm | - | - | - |
| 1777437009 | - | 59% | 1025 hPa | 0 mm | - | - | - |
| 1777436686 | - | 58% | 1024.9 hPa | 0 mm | - | - | - |
| 1777436363 | - | 58% | 1025 hPa | 0 mm | - | - | - |
| 1777436040 | - | 57% | 1024.9 hPa | 0 mm | - | - | - |
| 1777435716 | - | 58% | 1024.8 hPa | 0 mm | - | - | - |
| 1777435393 | - | 57% | 1024.5 hPa | 0 mm | - | - | - |
| 1777435071 | - | 58% | 1024.9 hPa | 0 mm | - | - | - |
| 1777434748 | - | 60% | 1024.9 hPa | 0 mm | - | - | - |
| 1777434425 | - | 58% | 1024.7 hPa | 0 mm | - | - | - |
| 1777434103 | - | 61% | 1024.8 hPa | 0 mm | - | - | - |
| 1777433778 | - | 60% | 1024.7 hPa | 0 mm | - | - | - |
| 1777433456 | - | 59% | 1024.7 hPa | 0 mm | - | - | - |
| 1777433133 | - | 47% | 1024.5 hPa | 0 mm | - | - | - |
| 1777432810 | - | 46% | 1024.5 hPa | 0 mm | - | - | - |
| 1777432487 | - | 45% | 1024.5 hPa | 0 mm | - | - | - |
| 1777432163 | - | 45% | 1024.6 hPa | 0 mm | - | - | - |
| 1777431841 | - | 45% | 1024.7 hPa | 0 mm | - | - | - |
| 1777431517 | - | 55% | 1024.7 hPa | 0 mm | - | - | - |
| 1777431195 | - | 54% | 1024.6 hPa | 0 mm | - | - | - |
| 1777430874 | - | 54% | 1024.7 hPa | 0 mm | - | - | - |
| 1777430548 | - | 54% | 1024.7 hPa | 0 mm | - | - | - |
| 1777430225 | - | 54% | 1024.6 hPa | 0 mm | - | - | - |
| 1777429902 | - | 53% | 1024.7 hPa | 0 mm | - | - | - |
* Rain latest hour (hover to see other rain measurements)
** Current wind speed in m/s (hover to see current wind gust speed)